Regional Weather Roundup
Issued by NWS Huntsville, AL

Home | Current Version | Previous Version | Text Only | Print | Product List | Glossary On
Versions: 1 2 3 4 5 6 7 8 9 10 11 12 13 14 15 16 17 18 19 20 21 22 23 24 25 26 27 28 29 30 31 32 33 34 35 36 37 38 39 40 41 42 43 44 45 46 47 48 49 50
000
ASUS44 KHUN 181110
RWRHUN

WEATHER ROUNDUP FOR THE TENNESSEE VALLEY
NATIONAL WEATHER SERVICE HUNTSVILLE AL
600 AM CDT SAT APR 18 2015

ALZ001>004-181200-
NORTHWEST ALABAMA

CITY           SKY/WX    TMP DP  RH WIND       PRES   REMARKS
COURTLAND HCN    N/A     59  32  36 CALM        N/A
SHOALS AIRPORT CLOUDY    59  57  93 CALM      30.00F FOG
SHOALS TVA RES   N/A     57 N/A N/A MISG        N/A
$$

ALZ005>007-016-181200-
NORTH CENTRAL ALABAMA

CITY           SKY/WX    TMP DP  RH WIND       PRES   REMARKS
CULLMAN AG STN   N/A     61 N/A N/A CALM        N/A
DECATUR AP     PTCLDY    57  57 100 NE3       29.99F FOG
HUNTSVILLE AP  FOG       59  56  89 NE6       29.99F VSB 1/2
HUN NWS/UAH      N/A     57  55  94 N2          N/A
MERIDIANVILLE  FOG       54  52  94 CALM      30.01R VSB 1/4
REDSTONE ARSN  FOG       55  55  98 N6        29.99F VSB 1/4
VINEMONT AP    CLOUDY    60  59  96 NE3       30.01F
$$

ALZ008>010-181200-
NORTHEAST ALABAMA

CITY           SKY/WX    TMP DP  RH WIND       PRES   REMARKS
ALBERTVILLE    CLOUDY    61  61 100 NE5       29.99S
FORT PAYNE     PTCLDY    57  55  94 CALM      30.00S FOG
SCOTTSBORO AP  CLOUDY    59  59 100 NE3       30.02R FOG
SCOTTSBORO HCN   N/A     59 N/A N/A MISG        N/A
VALLEY HEAD      N/A     57 N/A N/A MISG        N/A
$$

TNZ076-096-097-181200-
SOUTHEASTERN MIDDLE TENNESSEE

CITY           SKY/WX    TMP DP  RH WIND       PRES   REMARKS
TULLAHOMA        N/A     54  54 100 CALM      30.02S
WINCHESTER     MOCLDY    54  52  94 CALM      30.02S VSB 3/4
$$

...SURROUNDING SITES...

CITY           SKY/WX    TMP DP  RH WIND       PRES   REMARKS
ATLANTA        LGT RAIN  63  61  93 NE6       29.98R VSB 1/2
ANNISTON       LGT RAIN  63  61  93 NE3       29.97F FOG
BIRMINGHAM     CLOUDY    62  61  96 NE5       29.98F FOG
CHATTANOOGA    FOG       59  59 100 CALM      30.02R VSB 1/4
CORINTH        FOG       59  59 100 CALM      29.98F VSB<1/4
DALTON         CLOUDY    59  59 100 CALM      30.01R FOG
GADSDEN        CLOUDY    63  57  82 N3        29.97S
GOLDEN TRNGL   NOT AVBL
HALEYVILLE       N/A     59  59 100 CALM      30.01S FOG
JACKSON TN     FOG       54  52  93 CALM      30.00S VSB 3/4
MEMPHIS        CLOUDY    62  59  90 NE6       29.97F FOG
NASHVILLE      CLOUDY    56  55  97 CALM      30.03R
OXFORD MS      FAIR      57  57 100 CALM      29.98S FOG
ROME           CLOUDY    60  60 100 NE3       30.00R FOG
SAVANNAH       CLOUDY    55  32  41 CALM      30.00F VSB 0
TUPELO         CLOUDY    61  59  93 E6        29.97F FOG
TUSCALOOSA     CLOUDY    61  59  93 CALM      29.97R
$$

...GULF COAST WEATHER...

CITY           SKY/WX    TMP DP  RH WIND       PRES   REMARKS
GULFPORT       LGT RAIN  69  67  93 NE3       29.92S FOG
PASCAGOULA     LGT RAIN  68  68 100 CALM      29.94R FOG
MOBILE         RAIN      66  66 100 NE6       29.94R FOG
GULF SHORES    CLOUDY    68  68 100 CALM      29.93R FOG
PENSACOLA      MOCLDY    71  69  93 CALM      29.93R FOG
DESTIN         PTCLDY    72  70  93 CALM      29.93R
PANAMA CITY    FOG       68  66  94 CALM      29.93R VSB 1/2
APPALACHICOLA  CLOUDY    77  73  87 SW8       29.93R
$$




USA.gov is the U.S. government's official web portal to all federal, state and local government web resources and services.